Lapse_Rate
6.0 4.6 4.7 5.1 4.8 5.4 5.4 5.0 4.7 5.1 5.2 5.4 5.2 5.6 6.1 6.1 5.9 6.0 5.7 5.9 4.9 5.0
5.8 4.7 5.0 4.5 4.4 4.8 4.8 5.1 5.3 5.2 5.6 5.3 5.2 5.8 5.8 6.1 6.2 5.9 6.1 5.8 5.0 5.5
5.5 5.0 5.0 4.7 4.8 4.9 5.4 5.2 5.0 5.1 5.5 6.0 5.9 6.3 6.4 6.7 6.6 6.1 5.9 5.8 5.8 5.3
5.4 5.2 4.9 5.0 4.9 5.0 5.1 4.7 4.8 5.1 5.4 6.0 6.4 6.4 6.7 6.6 6.6 6.4 6.3 6.4 5.8 5.6
5.8 5.7 5.3 5.1 5.0 5.1 4.9 4.7 4.8 5.1 5.6 6.1 6.4 6.6 6.6 6.4 6.5 6.4 6.7 6.0 6.1 5.3
6.1 5.8 5.5 5.2 5.2 5.2 4.8 4.9 5.0 5.1 5.8 6.0 6.5 6.6 6.4 6.7 6.6 6.0 6.6 6.3 6.3 5.6
6.0 6.1 5.7 5.2 5.3 5.1 5.0 5.0 5.0 5.1 5.6 5.9 6.2 6.1 6.2 6.3 6.3 6.4 6.5 6.4 6.0 5.8
6.0 5.9 5.9 5.4 5.6 5.3 4.9 5.1 4.9 4.8 5.4 5.4 5.6 6.5 6.3 6.5 6.1 5.9 6.2 5.9 5.7 5.5
6.1 6.1 5.9 5.7 5.7 5.8 5.2 4.9 4.7 4.6 5.4 5.5 5.1 5.7 6.3 5.8 6.0 5.7 5.8 5.6 5.5 5.1
5.9 6.1 6.0 5.8 5.7 5.6 5.2 4.8 4.5 4.2 4.3 5.2 5.3 5.4 5.7 5.6 5.4 5.4 5.4 5.5 5.2 4.7
6.2 5.9 6.1 5.9 5.9 5.4 5.2 5.0 4.7 4.3 4.1 5.2 5.3 5.3 5.5 5.8 5.8 5.5 5.7 5.5 5.2 5.1
6.4 5.9 5.8 5.9 6.1 5.8 5.4 5.0 4.9 4.7 4.5 5.1 5.1 5.6 5.5 5.6 5.6 5.5 5.4 5.4 5.1 4.8
6.4 6.1 5.9 5.7 5.8 5.8 5.8 5.5 5.3 5.3 5.5 5.4 5.5 5.4 5.5 5.4 5.2 5.3 5.3 5.0 4.7 4.5
6.7 6.4 6.1 5.8 5.6 5.7 5.8 5.6 5.6 5.5 5.5 5.3 5.4 5.4 5.5 5.5 5.5 5.3 5.2 5.2 5.2 5.2
Wind_Speed
11 7 8 9 7 7 7 8 10 11 12 13 14 14 12 13 13 14 14 18 13 11
8 9 8 8 7 7 8 8 10 12 13 14 13 12 14 10 15 14 15 15 15 12
8 8 8 6 8 8 7 9 9 9 11 13 14 14 14 14 13 16 13 13 17 14
7 8 7 6 6 6 3 4 8 12 13 15 14 13 13 15 17 17 15 14 17 16
6 6 7 8 8 5 4 2 6 5 11 13 13 13 12 13 15 18 17 16 16 15
5 5 8 8 7 7 6 3 6 2 6 6 4 14 13 12 13 15 15 16 15 15
4 5 5 7 8 7 4 5 6 4 4 8 6 4 9 11 11 11 12 13 14 14
5 3 2 5 7 8 5 5 4 5 3 7 7 4 8 11 9 12 9 9 9 12
7 6 3 1 6 8 6 6 5 4 4 6 5 11 15 10 9 10 10 9 7 7
8 8 6 3 5 7 6 5 5 5 3 5 7 12 15 15 8 9 9 9 10 8
8 8 7 7 3 6 4 4 4 6 3 4 5 11 12 12 9 9 8 8 8 9
8 8 9 9 8 5 7 7 6 4 5 5 4 9 11 9 6 7 7 8 7 7
8 8 9 8 9 8 9 10 8 10 8 8 4 9 11 9 5 6 5 6 5 8
7 7 8 10 9 9 11 11 11 13 11 12 10 10 15 14 7 6 6 6 5 5
Wind_Direction
234 242 254 248 239 237 231 230 226 218 223 223 225 229 211 199 191 193 190 177 179 168
232 237 247 238 244 250 252 243 231 222 221 224 224 218 200 206 198 190 185 176 170 176
234 234 237 231 243 242 251 243 240 234 224 224 218 216 201 192 197 185 185 176 173 179
242 232 223 221 229 223 207 245 247 242 237 232 213 202 209 198 189 188 184 179 175 175
239 222 209 214 215 191 196 250 302 241 233 218 191 191 190 187 189 180 182 174 176 166
257 224 221 211 197 191 185 162 31 33 64 47 203 183 178 178 177 174 175 167 166 161
287 268 231 205 189 169 158 124 98 36 58 76 20 139 157 161 169 173 166 162 165 157
352 347 301 195 164 152 158 123 109 76 25 75 39 51 127 132 141 125 125 131 147 165
7 2 16 146 150 142 153 137 117 92 46 58 61 57 81 103 115 110 114 112 102 122
7 15 10 84 118 135 138 145 154 120 68 68 77 60 71 74 85 102 116 128 134 123
20 22 27 31 82 108 112 116 137 169 145 93 81 100 93 88 88 88 94 92 98 116
23 33 33 35 31 73 84 68 58 53 135 105 118 124 106 94 91 99 103 109 117 123
21 35 52 47 45 61 75 71 66 59 49 81 131 139 131 110 98 84 76 63 74 102
26 43 54 65 56 63 77 76 72 69 53 55 61 80 98 106 110 118 97 89 77 84